Weather History for Gulfport, MS

Change the Weather History Date:

Monday, February 25, 2013

  Actual Average Record
Temperature  
Mean Temperature 64 °F -  
Max Temperature 68 °F 65 °F 82 °F (2011)
Min Temperature 59 °F 45 °F 27 °F (1965)
Degree Days  
Heating Degree Days 2    
Growing Degree Days 14 (Base 50)    
Moisture  
Dew Point 60 °F    
Average Humidity 91    
Maximum Humidity 97    
Minimum Humidity 72    
Precipitation  
Precipitation 5.33 in - - ()
Sea Level Pressure  
Sea Level Pressure 29.66 in    
Wind  
Wind Speed 12 mph (ESE)    
Max Wind Speed 21 mph    
Max Gust Speed 31 mph    
Visibility 7 miles    
Events Rain , Thunderstorm    
Averages and records for this station are not official NWS values.
T = Trace of Precipitation, MM = Missing Value Source: NWS Daily Summary

Daily Weather History Graph

Daily Weather History Graph

Search for Another Location

Airport:

Trip Planner

Search our weather history database for the weather conditions in past years. The results will help you decide how hot, cold, wet, or windy it might be!

Date:

Astronomy

Feb. 25, 2013 Rise Set
Actual Time 6:26 AM CST 5:52 PM CST
Civil Twilight 6:02 AM CST 6:16 PM CST
Nautical Twilight 5:34 AM CST 6:44 PM CST
Astronomical Twilight 5:06 AM CST 7:12 PM CST
Moon 6:00 PM CST (2/25) 5:59 AM CST (2/25)
Length of Visible Light 12h 14m
Length of Day
11h 25m
Full, 100% of the Moon is Illuminated
Feb 25
Full
Feb 25
Full
Mar 4
Last Quarter
Mar 11
New
Mar 19
First Quarter

Hourly Weather History & Observations

Time (CST) Temp. Dew Point Humidity Pressure Visibility Wind Dir Wind Speed Gust Speed Precip Events Conditions
12:18 AM 60.8 °F 57.2 °F 88% 29.78 in - ENE 10.4 mph - 0.01 in Rain Light Rain
12:28 AM 60.8 °F 59.0 °F 94% 29.78 in - East 8.1 mph - 0.01 in Rain , Thunderstorm Light Thunderstorms and Rain
12:53 AM 61.0 °F 59.0 °F 93% 29.78 in - East 6.9 mph - 0.01 in   Overcast
1:03 AM 60.8 °F 59.0 °F 94% 29.77 in - ENE 5.8 mph - 0.01 in Rain , Thunderstorm Light Thunderstorms and Rain
1:53 AM 61.0 °F 59.0 °F 93% 29.72 in - NE 10.4 mph 19.6 mph 0.43 in   Overcast
2:11 AM 60.8 °F 59.0 °F 94% 29.71 in - East 13.8 mph - 0.02 in Rain , Thunderstorm Thunderstorms and Rain
2:23 AM 60.8 °F 59.0 °F 94% 29.69 in - ESE 17.3 mph - 0.02 in Rain , Thunderstorm Light Thunderstorms and Rain
2:41 AM 60.8 °F 57.2 °F 88% 29.74 in - NNW 17.3 mph 31.1 mph 0.03 in Rain , Thunderstorm Light Thunderstorms and Rain
2:51 AM 64.4 °F 57.2 °F 77% 29.69 in - East 10.4 mph 26.5 mph 0.04 in Rain , Thunderstorm Light Rain
2:53 AM 62.1 °F 57.9 °F 86% 29.73 in - NE 8.1 mph 26.5 mph 0.04 in Rain , Thunderstorm Light Rain
3:53 AM 59.0 °F 57.9 °F 96% 29.73 in - East 12.7 mph 20.7 mph 1.70 in Rain , Thunderstorm Heavy Thunderstorms and Rain
4:07 AM 60.8 °F 59.0 °F 94% 29.73 in - East 13.8 mph - 0.07 in Rain , Thunderstorm Heavy Thunderstorms and Rain
4:18 AM 60.8 °F 59.0 °F 94% 29.71 in - East 11.5 mph - 0.17 in Rain , Thunderstorm Heavy Thunderstorms and Rain
4:53 AM 61.0 °F 59.0 °F 93% 29.72 in - ENE 15.0 mph 24.2 mph 0.25 in Rain , Thunderstorm Thunderstorms and Rain
5:03 AM 60.8 °F 59.0 °F 94% 29.71 in - East 15.0 mph 21.9 mph 0.01 in Rain Light Rain
5:53 AM 62.1 °F 59.0 °F 90% 29.71 in 10.0 mi East 16.1 mph - 0.02 in Thunderstorm Mostly Cloudy
6:10 AM 62.6 °F 59.0 °F 88% 29.73 in 10.0 mi East 13.8 mph 21.9 mph 0.00 in Rain Light Rain
6:24 AM 60.8 °F 59.0 °F 94% 29.74 in 10.0 mi East 10.4 mph - 0.09 in Rain Light Rain
6:53 AM 61.0 °F 59.0 °F 93% 29.74 in 10.0 mi East 12.7 mph - 0.11 in Rain Light Rain
7:53 AM 62.1 °F 59.0 °F 90% 29.75 in 10.0 mi East 10.4 mph - 0.00 in   Overcast
8:53 AM 63.0 °F 60.1 °F 90% 29.75 in 10.0 mi ESE 10.4 mph 20.7 mph 0.00 in Rain Light Rain
9:53 AM 63.0 °F 59.0 °F 87% 29.76 in 7.0 mi ESE 15.0 mph - 0.00 in   Overcast
10:53 AM 62.1 °F 59.0 °F 90% 29.75 in - ESE 18.4 mph 27.6 mph 0.01 in Rain Light Rain
11:00 AM 60.8 °F 59.0 °F 94% 29.75 in - ESE 16.1 mph - 0.01 in Rain Light Rain
11:53 AM 61.0 °F 57.9 °F 90% 29.72 in 10.0 mi ESE 20.7 mph 28.8 mph 0.03 in Rain Light Rain
12:53 PM 63.0 °F 59.0 °F 87% 29.67 in 10.0 mi East 17.3 mph - 0.01 in   Overcast
1:53 PM 62.1 °F 57.9 °F 86% 29.65 in 10.0 mi ESE 18.4 mph 26.5 mph N/A   Overcast
2:53 PM 63.0 °F 57.9 °F 84% 29.61 in 9.0 mi East 15.0 mph 26.5 mph 0.00 in Rain Light Rain
3:53 PM 64.0 °F 60.1 °F 87% 29.59 in 7.0 mi East 16.1 mph 26.5 mph 0.00 in   Overcast
4:21 PM 62.6 °F 60.8 °F 94% 29.56 in 5.0 mi East 19.6 mph 27.6 mph 0.00 in Rain Light Rain
4:53 PM 64.0 °F 61.0 °F 90% 29.54 in 4.0 mi ESE 20.7 mph 28.8 mph 0.01 in Rain Light Rain
5:53 PM 63.0 °F 62.1 °F 97% 29.52 in 4.0 mi ESE 13.8 mph 23.0 mph 0.06 in Rain Rain
6:10 PM 64.4 °F 62.6 °F 94% 29.51 in 3.0 mi SE 13.8 mph - 0.09 in Rain , Thunderstorm Heavy Thunderstorms and Rain
6:53 PM 66.0 °F 64.9 °F 96% 29.54 in 1.0 mi SW 9.2 mph 23.0 mph 1.61 in Rain , Thunderstorm Heavy Thunderstorms and Rain
7:04 PM 66.2 °F 64.4 °F 94% 29.51 in 3.0 mi WSW 8.1 mph 21.9 mph 0.38 in Rain , Thunderstorm Heavy Thunderstorms and Rain
7:17 PM 66.2 °F 64.4 °F 94% 29.51 in 3.0 mi SSW 6.9 mph - 0.81 in Rain Heavy Rain
7:53 PM 68.0 °F 66.0 °F 93% 29.50 in 3.0 mi SSW 18.4 mph 27.6 mph 0.98 in   Overcast
8:53 PM 66.0 °F 64.9 °F 96% 29.52 in 5.0 mi SSW 13.8 mph 25.3 mph 0.05 in Rain Light Rain
9:24 PM 66.2 °F 64.4 °F 94% 29.52 in 5.0 mi SW 8.1 mph 20.7 mph 0.01 in   Overcast
9:34 PM 66.2 °F 64.4 °F 94% 29.53 in 5.0 mi SW 9.2 mph 18.4 mph 0.01 in   Overcast
9:53 PM 66.0 °F 63.0 °F 90% 29.52 in 5.0 mi SW 8.1 mph - 0.01 in   Overcast
10:53 PM 64.0 °F 62.1 °F 93% 29.54 in 10.0 mi Variable 4.6 mph - N/A   Scattered Clouds
11:53 PM 63.0 °F 54.0 °F 72% 29.54 in - West 8.1 mph - N/A   Clear